| time (UTC) | temp F | wind direction | speed MPH | gust MPH | rain 1hr in | rain 24hr in | rain mn in | humidity % | barometer mb |
| 20260506012616 | 101 | 147 | 0.0 | 5.0 | 0.00 | 0.00 | 0.00 | 100 | 1005.6 |
| 20260506012111 | 101 | 147 | 0.0 | 5.0 | 0.00 | 0.00 | 0.00 | 100 | 1005.5 |
| 20260506011556 | 101 | 125 | 0.0 | 5.0 | 0.00 | 0.00 | 0.00 | 100 | 1005.5 |
| 20260506011056 | 101 | 151 | 3.0 | 5.0 | 0.00 | 0.00 | 0.00 | 100 | 1005.6 |
| 20260506010554 | 101 | 153 | 0.0 | 0.0 | 0.00 | 0.00 | 0.00 | 100 | 1005.6 |
| 20260506010049 | 101 | 153 | 0.0 | 0.0 | 0.00 | 0.00 | 0.00 | 100 | 1005.6 |
| 20260506005535 | 101 | 153 | 0.0 | 0.0 | 0.00 | 0.00 | 0.00 | 100 | 1005.6 |
| 20260506005034 | 101 | 153 | 0.0 | 0.0 | 0.00 | 0.00 | 0.00 | 100 | 1005.6 |
| 20260506004535 | 102 | 153 | 0.0 | 0.0 | 0.00 | 0.00 | 0.00 | 100 | 1005.5 |
| 20260506004033 | 102 | 153 | 0.0 | 0.0 | 0.00 | 0.00 | 0.00 | 100 | 1005.6 |
| 20260506003534 | 102 | 153 | 0.0 | 0.0 | 0.00 | 0.00 | 0.00 | 100 | 1005.6 |
| 20260506003019 | 102 | 153 | 0.0 | 6.0 | 0.00 | 0.00 | 0.00 | 100 | 1005.5 |
| 20260506002514 | 102 | 153 | 0.0 | 6.0 | 0.00 | 0.00 | 0.00 | 100 | 1005.5 |
| 20260506002245 | 102 | 102 | 0.0 | 2.0 | 0.00 | 0.00 | 0.00 | 100 | 1005.6 |
| 20260506001503 | 102 | 119 | 0.0 | 2.0 | 0.00 | 0.00 | 0.00 | 100 | 1005.6 |
| 20260506001003 | 102 | 119 | 0.0 | 4.0 | 0.00 | 0.00 | 0.00 | 100 | 1005.5 |
| 20260506000455 | 102 | 119 | 0.0 | 6.0 | 0.00 | 0.00 | 0.00 | 100 | 1005.5 |
| 20260505235943 | 102 | 160 | 1.0 | 6.0 | 0.00 | 0.00 | 0.00 | 100 | 1005.5 |
| 20260505235443 | 102 | 102 | 2.0 | 6.0 | 0.00 | 0.00 | 0.00 | 100 | 1005.4 |
| 20260505235149 | 102 | 161 | 1.0 | 9.0 | 0.00 | 0.00 | 0.00 | 100 | 1005.3 |
| 20260505234404 | 102 | 205 | 4.0 | 10.0 | 0.00 | 0.00 | 0.00 | 100 | 1005.2 |
| 20260505234135 | 102 | 167 | 4.0 | 10.0 | 0.00 | 0.00 | 0.00 | 100 | 1005.1 |
| 20260505233635 | 102 | 201 | 6.0 | 10.0 | 0.00 | 0.00 | 0.00 | 100 | 1005.1 |
| 20260505232904 | 102 | 158 | 5.0 | 11.0 | 0.00 | 0.00 | 0.00 | 100 | 1005.1 |
| 20260505232402 | 102 | 177 | 6.0 | 11.0 | 0.00 | 0.00 | 0.00 | 100 | 1005.2 |
| 20260505231902 | 102 | 216 | 2.0 | 9.0 | 0.00 | 0.00 | 0.00 | 100 | 1005.2 |
| 20260505231402 | 102 | 168 | 5.0 | 10.0 | 0.00 | 0.00 | 0.00 | 100 | 1005.1 |
| 20260505230901 | 103 | 178 | 5.0 | 12.0 | 0.00 | 0.00 | 0.00 | 100 | 1005.1 |
| 20260505230400 | 102 | 208 | 4.0 | 12.0 | 0.00 | 0.00 | 0.00 | 100 | 1005.1 |
| 20260505230130 | 103 | 156 | 2.0 | 9.0 | 0.00 | 0.00 | 0.00 | 100 | 1005.1 |
| 20260505225402 | 103 | 180 | 2.0 | 11.0 | 0.00 | 0.00 | 0.00 | 100 | 1004.9 |
| 20260505225358 | 103 | 139 | 4.0 | 10.0 | 0.00 | 0.00 | 0.00 | 100 | 1005.0 |
| 20260505224356 | 103 | 160 | 3.0 | 11.0 | 0.00 | 0.00 | 0.00 | 100 | 1005.0 |
| 20260505223853 | 103 | 201 | 3.0 | 9.0 | 0.00 | 0.00 | 0.00 | 100 | 1004.9 |
| 20260505223353 | 103 | 160 | 5.0 | 10.0 | 0.00 | 0.00 | 0.00 | 100 | 1004.9 |
| 20260505222853 | 103 | 170 | 6.0 | 10.0 | 0.00 | 0.00 | 0.00 | 100 | 1004.9 |
| 20260505222353 | 103 | 182 | 4.0 | 14.0 | 0.00 | 0.00 | 0.00 | 100 | 1004.8 |
| 20260505221853 | 103 | 195 | 4.0 | 14.0 | 0.00 | 0.00 | 0.00 | 100 | 1004.9 |
| 20260505221353 | 103 | 217 | 5.0 | 11.0 | 0.00 | 0.00 | 0.00 | 100 | 1005.0 |
| 20260505220852 | 103 | 191 | 5.0 | 11.0 | 0.00 | 0.00 | 0.00 | 100 | 1005.0 |
| 20260505220353 | 103 | 156 | 3.0 | 10.0 | 0.00 | 0.00 | 0.00 | 100 | 1005.0 |
| 20260505215857 | 103 | 203 | 0.0 | 10.0 | 0.00 | 0.00 | 0.00 | 100 | 1005.0 |
| 20260505215851 | 102 | 157 | 5.0 | 10.0 | 0.00 | 0.00 | 0.00 | 100 | 1005.0 |
| 20260505215121 | 103 | 198 | 4.0 | 11.0 | 0.00 | 0.00 | 0.00 | 100 | 1005.1 |
| 20260505214348 | 103 | 129 | 5.0 | 11.0 | 0.00 | 0.00 | 0.00 | 100 | 1005.3 |
| 20260505213848 | 103 | 167 | 6.0 | 11.0 | 0.00 | 0.00 | 0.00 | 100 | 1005.4 |
| 20260505213348 | 103 | 118 | 4.0 | 10.0 | 0.00 | 0.00 | 0.00 | 100 | 1005.3 |
| 20260505212848 | 103 | 150 | 3.0 | 10.0 | 0.00 | 0.00 | 0.00 | 100 | 1005.2 |
| 20260505212347 | 102 | 150 | 5.0 | 10.0 | 0.00 | 0.00 | 0.00 | 100 | 1005.4 |
| 20260505212117 | 102 | 151 | 5.0 | 10.0 | 0.00 | 0.00 | 0.00 | 100 | 1005.5 |
| 20260505211346 | 103 | 210 | 5.0 | 10.0 | 0.00 | 0.00 | 0.00 | 100 | 1005.5 |
| 20260505210846 | 103 | 171 | 6.0 | 10.0 | 0.00 | 0.00 | 0.00 | 100 | 1005.4 |
| 20260505210346 | 102 | 143 | 4.0 | 13.0 | 0.00 | 0.00 | 0.00 | 100 | 1005.3 |
| 20260505205844 | 103 | 175 | 6.0 | 13.0 | 0.00 | 0.00 | 0.00 | 100 | 1005.6 |
| 20260505205344 | 103 | 142 | 7.0 | 12.0 | 0.00 | 0.00 | 0.00 | 100 | 1005.6 |
| 20260505204843 | 103 | 212 | 7.0 | 14.0 | 0.00 | 0.00 | 0.00 | 100 | 1005.6 |
| 20260505204616 | 103 | 233 | 6.0 | 14.0 | 0.00 | 0.00 | 0.00 | 100 | 1005.6 |
| 20260505203843 | 101 | 150 | 5.0 | 13.0 | 0.00 | 0.00 | 0.00 | 100 | 1005.6 |
| 20260505203342 | 103 | 135 | 5.0 | 9.0 | 0.00 | 0.00 | 0.00 | 100 | 1005.8 |
| 20260505202842 | 102 | 187 | 4.0 | 10.0 | 0.00 | 0.00 | 0.00 | 100 | 1005.9 |
| 20260505202615 | 102 | 136 | 5.0 | 10.0 | 0.00 | 0.00 | 0.00 | 100 | 1006.0 |
| 20260505201844 | 102 | 133 | 5.0 | 10.0 | 0.00 | 0.00 | 0.00 | 100 | 1006.1 |
| 20260505201345 | 102 | 147 | 3.0 | 11.0 | 0.00 | 0.00 | 0.00 | 100 | 1006.2 |
| 20260505200844 | 101 | 177 | 6.0 | 12.0 | 0.00 | 0.00 | 0.00 | 100 | 1006.3 |
| 20260505200344 | 101 | 153 | 7.0 | 12.0 | 0.00 | 0.00 | 0.00 | 100 | 1006.3 |
| 20260505195844 | 101 | 140 | 5.0 | 9.0 | 0.00 | 0.00 | 0.00 | 100 | 1006.5 |
| 20260505195344 | 102 | 150 | 5.0 | 12.0 | 0.00 | 0.00 | 0.00 | 100 | 1006.3 |
| 20260505194344 | 101 | 177 | 6.0 | 10.0 | 0.00 | 0.00 | 0.00 | 100 | 1006.6 |
| 20260505193844 | 101 | 184 | 6.0 | 10.0 | 0.00 | 0.00 | 0.00 | 100 | 1006.7 |
| 20260505193344 | 101 | 192 | 4.0 | 9.0 | 0.00 | 0.00 | 0.00 | 100 | 1006.8 |
| 20260505192843 | 101 | 198 | 2.0 | 13.0 | 0.00 | 0.00 | 0.00 | 100 | 1006.8 |
| 20260505192344 | 102 | 154 | 5.0 | 13.0 | 0.00 | 0.00 | 0.00 | 100 | 1006.8 |
| 20260505191844 | 101 | 140 | 6.0 | 8.0 | 0.00 | 0.00 | 0.00 | 100 | 1006.8 |
| 20260505191616 | 101 | 177 | 3.0 | 11.0 | 0.00 | 0.00 | 0.00 | 100 | 1006.8 |
| 20260505190845 | 102 | 189 | 6.0 | 11.0 | 0.00 | 0.00 | 0.00 | 100 | 1006.9 |
| 20260505185843 | 100 | 142 | 5.0 | 11.0 | 0.00 | 0.00 | 0.00 | 100 | 1006.9 |
| 20260505185613 | 101 | 202 | 6.0 | 12.0 | 0.00 | 0.00 | 0.00 | 100 | 1006.9 |
| 20260505184844 | 100 | 168 | 4.0 | 12.0 | 0.00 | 0.00 | 0.00 | 100 | 1007.1 |
| 20260505184342 | 100 | 196 | 6.0 | 9.0 | 0.00 | 0.00 | 0.00 | 100 | 1007.2 |
| 20260505183843 | 99 | 132 | 4.0 | 12.0 | 0.00 | 0.00 | 0.00 | 100 | 1007.3 |
| 20260505183343 | 99 | 180 | 1.0 | 12.0 | 0.00 | 0.00 | 0.00 | 100 | 1007.4 |
| 20260505182843 | 99 | 209 | 5.0 | 12.0 | 0.00 | 0.00 | 0.00 | 100 | 1007.5 |
| 20260505182343 | 98 | 150 | 0.0 | 12.0 | 0.00 | 0.00 | 0.00 | 100 | 1007.6 |
| 20260505181843 | 98 | 139 | 7.0 | 11.0 | 0.00 | 0.00 | 0.00 | 100 | 1007.6 |
| 20260505181343 | 98 | 201 | 6.0 | 11.0 | 0.00 | 0.00 | 0.00 | 100 | 1007.7 |
| 20260505180845 | 98 | 174 | 4.0 | 11.0 | 0.00 | 0.00 | 0.00 | 100 | 1007.7 |
| 20260505180345 | 98 | 143 | 5.0 | 10.0 | 0.00 | 0.00 | 0.00 | 100 | 1007.8 |
| 20260505175844 | 97 | 137 | 4.0 | 10.0 | 0.00 | 0.00 | 0.00 | 100 | 1007.8 |
| 20260505175344 | 97 | 225 | 4.0 | 10.0 | 0.00 | 0.00 | 0.00 | 100 | 1007.9 |
| 20260505174844 | 97 | 140 | 5.0 | 12.0 | 0.00 | 0.00 | 0.00 | 100 | 1008.0 |
| 20260505174345 | 97 | 248 | 3.0 | 12.0 | 0.00 | 0.00 | 0.00 | 100 | 1007.9 |
| 20260505173844 | 97 | 264 | 6.0 | 13.0 | 0.00 | 0.00 | 0.00 | 100 | 1008.0 |
| 20260505173344 | 97 | 177 | 7.0 | 13.0 | 0.00 | 0.00 | 0.00 | 100 | 1008.0 |
| 20260505172844 | 97 | 160 | 5.0 | 11.0 | 0.00 | 0.00 | 0.00 | 100 | 1008.0 |
| 20260505172343 | 97 | 192 | 6.0 | 11.0 | 0.00 | 0.00 | 0.00 | 100 | 1008.1 |
| 20260505171842 | 97 | 125 | 6.0 | 12.0 | 0.00 | 0.00 | 0.00 | 100 | 1008.2 |
| 20260505171342 | 97 | 213 | 7.0 | 12.0 | 0.00 | 0.00 | 0.00 | 100 | 1008.1 |
| 20260505170842 | 96 | 174 | 4.0 | 9.0 | 0.00 | 0.00 | 0.00 | 100 | 1008.1 |
| 20260505170342 | 96 | 168 | 3.0 | 8.0 | 0.00 | 0.00 | 0.00 | 100 | 1008.2 |
| 20260505165843 | 96 | 215 | 4.0 | 9.0 | 0.00 | 0.00 | 0.00 | 100 | 1008.2 |
| 20260505165343 | 95 | 168 | 6.0 | 9.0 | 0.00 | 0.00 | 0.00 | 100 | 1008.2 |
| 20260505164843 | 95 | 153 | 4.0 | 9.0 | 0.00 | 0.00 | 0.00 | 100 | 1008.2 |
| 20260505164614 | 95 | 180 | 3.0 | 9.0 | 0.00 | 0.00 | 0.00 | 100 | 1008.2 |
| 20260505163844 | 95 | 175 | 4.0 | 9.0 | 0.00 | 0.00 | 0.00 | 100 | 1008.2 |
| 20260505163344 | 95 | 210 | 5.0 | 11.0 | 0.00 | 0.00 | 0.00 | 100 | 1008.2 |
| 20260505163115 | 95 | 219 | 5.0 | 11.0 | 0.00 | 0.00 | 0.00 | 100 | 1008.0 |
| 20260505162344 | 95 | 119 | 5.0 | 12.0 | 0.00 | 0.00 | 0.00 | 100 | 1008.0 |
| 20260505161844 | 95 | 216 | 5.0 | 12.0 | 0.00 | 0.00 | 0.00 | 100 | 1008.1 |
| 20260505161344 | 95 | 201 | 6.0 | 11.0 | 0.00 | 0.00 | 0.00 | 100 | 1008.2 |
| 20260505160844 | 94 | 187 | 5.0 | 11.0 | 0.00 | 0.00 | 0.00 | 100 | 1008.1 |
| 20260505160344 | 94 | 205 | 5.0 | 11.0 | 0.00 | 0.00 | 0.00 | 100 | 1008.1 |
| 20260505152844 | 93 | 217 | 2.0 | 9.0 | 0.00 | 0.00 | 0.00 | 100 | 1008.2 |
| 20260505152344 | 93 | 158 | 0.0 | 9.0 | 0.00 | 0.00 | 0.00 | 100 | 1008.2 |
| 20260505151844 | 93 | 202 | 2.0 | 9.0 | 0.00 | 0.00 | 0.00 | 100 | 1008.1 |
| 20260505151344 | 93 | 202 | 3.0 | 10.0 | 0.00 | 0.00 | 0.00 | 100 | 1008.0 |
| 20260505150845 | 93 | 147 | 3.0 | 12.0 | 0.00 | 0.00 | 0.00 | 100 | 1008.0 |
| 20260505140321 | 92 | 174 | 1.0 | 10.0 | 0.00 | 0.00 | 0.00 | 100 | 1007.5 |
| 20260505130256 | 92 | 175 | 0.0 | 11.0 | 0.00 | 0.00 | 0.00 | 100 | 1007.1 |
| 20260505124744 | 92 | 202 | 1.0 | 10.0 | 0.00 | 0.00 | 0.00 | 100 | 1006.9 |
| 20260505124244 | 92 | 182 | 5.0 | 9.0 | 0.00 | 0.00 | 0.00 | 100 | 1006.8 |
| 20260505123743 | 91 | 153 | 4.0 | 10.0 | 0.00 | 0.00 | 0.00 | 100 | 1006.8 |
| 20260505123243 | 91 | 154 | 5.0 | 10.0 | 0.00 | 0.00 | 0.00 | 100 | 1006.7 |
| 20260505122742 | 91 | 153 | 4.0 | 9.0 | 0.00 | 0.00 | 0.00 | 100 | 1006.6 |
| 20260505122242 | 91 | 180 | 2.0 | 9.0 | 0.00 | 0.00 | 0.00 | 100 | 1006.6 |
| 20260505121743 | 91 | 157 | 5.0 | 10.0 | 0.00 | 0.00 | 0.00 | 100 | 1006.5 |
| 20260505121245 | 91 | 199 | 4.0 | 10.0 | 0.00 | 0.00 | 0.00 | 100 | 1006.3 |
| 20260505120744 | 91 | 127 | 4.0 | 9.0 | 0.00 | 0.00 | 0.00 | 100 | 1006.3 |
| 20260505120244 | 91 | 189 | 5.0 | 9.0 | 0.00 | 0.00 | 0.00 | 100 | 1006.2 |
| 20260505115744 | 91 | 232 | 3.0 | 8.0 | 0.00 | 0.00 | 0.00 | 100 | 1006.2 |
| 20260505115515 | 91 | 180 | 2.0 | 7.0 | 0.00 | 0.00 | 0.00 | 100 | 1006.1 |
| 20260505114744 | 91 | 191 | 0.0 | 9.0 | 0.00 | 0.00 | 0.00 | 100 | 1006.1 |
| 20260505114515 | 91 | 184 | 4.0 | 10.0 | 0.00 | 0.00 | 0.00 | 100 | 1006.2 |
| 20260505113748 | 91 | 202 | 4.0 | 9.0 | 0.00 | 0.00 | 0.00 | 100 | 1006.2 |
| 20260505113744 | 91 | 144 | 5.0 | 10.0 | 0.00 | 0.00 | 0.00 | 100 | 1006.2 |
| 20260505112745 | 91 | 158 | 6.0 | 10.0 | 0.00 | 0.00 | 0.00 | 100 | 1006.2 |
| 20260505112244 | 91 | 136 | 1.0 | 10.0 | 0.00 | 0.00 | 0.00 | 100 | 1006.3 |
| 20260505111744 | 91 | 181 | 4.0 | 9.0 | 0.00 | 0.00 | 0.00 | 100 | 1006.1 |
| 20260505111244 | 91 | 164 | 5.0 | 10.0 | 0.00 | 0.00 | 0.00 | 100 | 1006.1 |
| 20260505110745 | 91 | 194 | 5.0 | 13.0 | 0.00 | 0.00 | 0.00 | 100 | 1006.2 |
| 20260505110244 | 91 | 185 | 4.0 | 13.0 | 0.00 | 0.00 | 0.00 | 100 | 1006.3 |
| 20260505101748 | 90 | 175 | 5.0 | 11.0 | 0.00 | 0.00 | 0.00 | 100 | 1006.5 |
| 20260505101743 | 90 | 146 | 1.0 | 11.0 | 0.00 | 0.00 | 0.00 | 100 | 1006.2 |
| 20260505100745 | 90 | 140 | 0.0 | 9.0 | 0.00 | 0.00 | 0.00 | 100 | 1006.5 |
| 20260505100243 | 90 | 156 | 3.0 | 11.0 | 0.00 | 0.00 | 0.00 | 100 | 1006.5 |
| 20260505095743 | 90 | 192 | 0.0 | 11.0 | 0.00 | 0.00 | 0.00 | 100 | 1006.5 |
| 20260505095243 | 90 | 164 | 2.0 | 11.0 | 0.00 | 0.00 | 0.00 | 100 | 1006.5 |
| 20260505094748 | 90 | 161 | 3.0 | 10.0 | 0.00 | 0.00 | 0.00 | 100 | 1006.2 |
| 20260505094744 | 90 | 177 | 0.0 | 11.0 | 0.00 | 0.00 | 0.00 | 100 | 1006.2 |
| 20260505093743 | 90 | 187 | 4.0 | 10.0 | 0.00 | 0.00 | 0.00 | 100 | 1006.5 |
| 20260505093243 | 90 | 143 | 2.0 | 9.0 | 0.00 | 0.00 | 0.00 | 100 | 1006.6 |
| 20260505092744 | 90 | 220 | 4.0 | 9.0 | 0.00 | 0.00 | 0.00 | 100 | 1006.6 |
| 20260505092244 | 90 | 122 | 0.0 | 9.0 | 0.00 | 0.00 | 0.00 | 100 | 1006.6 |
| 20260505091744 | 90 | 135 | 1.0 | 9.0 | 0.00 | 0.00 | 0.00 | 100 | 1006.6 |
| 20260505091228 | 90 | 167 | 1.0 | 12.0 | 0.00 | 0.00 | 0.00 | 100 | 1006.5 |
| 20260505090717 | 90 | 174 | 2.0 | 12.0 | 0.00 | 0.00 | 0.00 | 100 | 1006.6 |
| 20260505090217 | 90 | 174 | 2.0 | 10.0 | 0.00 | 0.00 | 0.00 | 100 | 1006.7 |
| 20260505085718 | 90 | 132 | 0.0 | 15.0 | 0.00 | 0.00 | 0.00 | 100 | 1006.7 |
| 20260505085212 | 90 | 175 | 6.0 | 15.0 | 0.00 | 0.00 | 0.00 | 100 | 1006.7 |
| 20260505084944 | 90 | 165 | 3.0 | 11.0 | 0.00 | 0.00 | 0.00 | 100 | 1006.6 |
| 20260505084201 | 90 | 127 | 6.0 | 11.0 | 0.00 | 0.00 | 0.00 | 100 | 1006.7 |
| 20260505084155 | 90 | 153 | 4.0 | 11.0 | 0.00 | 0.00 | 0.00 | 100 | 1006.8 |
| 20260505083153 | 90 | 180 | 6.0 | 12.0 | 0.00 | 0.00 | 0.00 | 100 | 1006.8 |
| 20260505082653 | 90 | 153 | 5.0 | 14.0 | 0.00 | 0.00 | 0.00 | 100 | 1006.8 |
| 20260505082152 | 90 | 233 | 6.0 | 14.0 | 0.00 | 0.00 | 0.00 | 100 | 1007.1 |
| 20260505081652 | 90 | 195 | 4.0 | 14.0 | 0.00 | 0.00 | 0.00 | 100 | 1007.2 |
| 20260505081152 | 90 | 101 | 6.0 | 14.0 | 0.00 | 0.00 | 0.00 | 100 | 1007.1 |
| 20260505080653 | 90 | 180 | 4.0 | 11.0 | 0.00 | 0.00 | 0.00 | 100 | 1007.2 |
| 20260505080151 | 90 | 199 | 3.0 | 11.0 | 0.00 | 0.00 | 0.00 | 100 | 1007.3 |
| 20260505075651 | 90 | 135 | 0.0 | 12.0 | 0.00 | 0.00 | 0.00 | 100 | 1007.4 |
| 20260505075149 | 90 | 209 | 6.0 | 12.0 | 0.00 | 0.00 | 0.00 | 100 | 1007.4 |
| 20260505074649 | 90 | 191 | 4.0 | 11.0 | 0.00 | 0.00 | 0.00 | 100 | 1007.5 |
| 20260505074148 | 90 | 174 | 5.0 | 11.0 | 0.00 | 0.00 | 0.00 | 100 | 1007.6 |
| 20260505073649 | 90 | 167 | 6.0 | 13.0 | 0.00 | 0.00 | 0.00 | 100 | 1007.6 |
| 20260505073150 | 90 | 196 | 8.0 | 13.0 | 0.00 | 0.00 | 0.00 | 100 | 1007.6 |
| 20260505072649 | 90 | 151 | 6.0 | 11.0 | 0.00 | 0.00 | 0.00 | 100 | 1007.7 |
| 20260505072148 | 90 | 112 | 3.0 | 11.0 | 0.00 | 0.00 | 0.00 | 100 | 1007.7 |
| 20260505071644 | 90 | 168 | 6.0 | 10.0 | 0.00 | 0.00 | 0.00 | 100 | 1007.8 |
| 20260505071144 | 90 | 156 | 0.0 | 12.0 | 0.00 | 0.00 | 0.00 | 100 | 1007.9 |
| 20260505070640 | 90 | 201 | 2.0 | 12.0 | 0.00 | 0.00 | 0.00 | 100 | 1007.9 |
| 20260505070140 | 90 | 118 | 2.0 | 9.0 | 0.00 | 0.00 | 0.00 | 100 | 1008.0 |
| 20260505065640 | 90 | 133 | 4.0 | 11.0 | 0.00 | 0.00 | 0.00 | 100 | 1008.1 |
| 20260505065139 | 90 | 151 | 6.0 | 11.0 | 0.00 | 0.00 | 0.00 | 100 | 1008.0 |
| 20260505064639 | 90 | 150 | 4.0 | 11.0 | 0.00 | 0.00 | 0.00 | 100 | 1008.1 |
| 20260505064139 | 90 | 146 | 5.0 | 17.0 | 0.00 | 0.00 | 0.00 | 100 | 1008.2 |
| 20260505063639 | 90 | 180 | 9.0 | 17.0 | 0.00 | 0.00 | 0.00 | 100 | 1008.3 |
| 20260505063138 | 90 | 170 | 6.0 | 12.0 | 0.00 | 0.00 | 0.00 | 100 | 1008.3 |
| 20260505062638 | 90 | 185 | 6.0 | 15.0 | 0.00 | 0.00 | 0.00 | 100 | 1008.3 |
| 20260505062147 | 90 | 201 | 7.0 | 17.0 | 0.00 | 0.00 | 0.00 | 100 | 1008.5 |
| 20260505061638 | 90 | 187 | 5.0 | 17.0 | 0.00 | 0.00 | 0.00 | 100 | 1008.5 |
| 20260505061138 | 91 | 144 | 5.0 | 12.0 | 0.00 | 0.00 | 0.00 | 100 | 1008.5 |
| 20260505060638 | 91 | 167 | 4.0 | 10.0 | 0.00 | 0.00 | 0.00 | 100 | 1008.6 |
| 20260505060138 | 91 | 168 | 5.0 | 12.0 | 0.00 | 0.00 | 0.00 | 100 | 1008.6 |
| 20260505055908 | 91 | 165 | 2.0 | 12.0 | 0.00 | 0.00 | 0.00 | 100 | 1008.6 |
| 20260505055405 | 91 | 194 | 4.0 | 9.0 | 0.00 | 0.00 | 0.00 | 100 | 1008.6 |
| 20260505054634 | 90 | 216 | 5.0 | 10.0 | 0.00 | 0.00 | 0.00 | 100 | 1008.6 |
| 20260505054132 | 91 | 192 | 5.0 | 10.0 | 0.00 | 0.00 | 0.00 | 100 | 1008.5 |
| 20260505053631 | 91 | 180 | 3.0 | 8.0 | 0.00 | 0.00 | 0.00 | 100 | 1008.5 |
| 20260505053137 | 91 | 120 | 7.0 | 13.0 | 0.00 | 0.00 | 0.00 | 100 | 1008.6 |
| 20260505053132 | 91 | 126 | 4.0 | 12.0 | 0.00 | 0.00 | 0.00 | 100 | 1008.6 |
| 20260505052131 | 91 | 144 | 4.0 | 13.0 | 0.00 | 0.00 | 0.00 | 100 | 1008.6 |
| 20260505051613 | 91 | 157 | 5.0 | 11.0 | 0.00 | 0.00 | 0.00 | 100 | 1008.6 |
| 20260505051113 | 91 | 157 | 4.0 | 11.0 | 0.00 | 0.00 | 0.00 | 100 | 1008.6 |
| 20260505050612 | 91 | 187 | 4.0 | 12.0 | 0.00 | 0.00 | 0.00 | 100 | 1008.6 |
| 20260505050111 | 91 | 185 | 4.0 | 13.0 | 0.00 | 0.00 | 0.00 | 100 | 1008.5 |
| 20260505041559 | 92 | 154 | 6.0 | 11.0 | 0.00 | 0.00 | 0.00 | 100 | 1008.5 |
| 20260505041101 | 92 | 140 | 4.0 | 11.0 | 0.00 | 0.00 | 0.00 | 100 | 1008.5 |
| 20260505040600 | 92 | 140 | 5.0 | 11.0 | 0.00 | 0.00 | 0.00 | 100 | 1008.4 |
| 20260505040058 | 92 | 151 | 5.0 | 9.0 | 0.00 | 0.00 | 0.00 | 100 | 1008.6 |
| 20260505035053 | 92 | 163 | 6.0 | 10.0 | 0.00 | 0.00 | 0.00 | 100 | 1008.6 |
| 20260505034553 | 93 | 202 | 1.0 | 10.0 | 0.00 | 0.00 | 0.00 | 100 | 1008.6 |
| 20260505034318 | 93 | 127 | 1.0 | 12.0 | 0.00 | 0.00 | 0.00 | 100 | 1008.6 |
| 20260505033546 | 93 | 222 | 5.0 | 12.0 | 0.00 | 0.00 | 0.00 | 100 | 1008.5 |
| 20260505033046 | 93 | 130 | 3.0 | 11.0 | 0.00 | 0.00 | 0.00 | 100 | 1008.5 |
| 20260505032544 | 93 | 172 | 1.0 | 9.0 | 0.00 | 0.00 | 0.00 | 100 | 1008.5 |
| 20260505032314 | 93 | 177 | 4.0 | 11.0 | 0.00 | 0.00 | 0.00 | 100 | 1008.5 |
| 20260505031815 | 93 | 171 | 4.0 | 11.0 | 0.00 | 0.00 | 0.00 | 100 | 1008.5 |
| 20260505031313 | 93 | 84 | 3.0 | 7.0 | 0.00 | 0.00 | 0.00 | 100 | 1008.4 |
| 20260505031148 | 93 | 146 | 2.0 | 9.0 | 0.00 | 0.00 | 0.00 | 100 | 1008.5 |
| 20260505030047 | 93 | 147 | 2.0 | 6.0 | 0.00 | 0.00 | 0.00 | 100 | 1008.5 |
| 20260505030043 | 93 | 129 | 5.0 | 9.0 | 0.00 | 0.00 | 0.00 | 100 | 1008.5 |
| 20260505025043 | 93 | 146 | 3.0 | 9.0 | 0.00 | 0.00 | 0.00 | 100 | 1008.5 |
| 20260505024542 | 94 | 172 | 4.0 | 9.0 | 0.00 | 0.00 | 0.00 | 100 | 1008.4 |
| 20260505024044 | 94 | 142 | 3.0 | 8.0 | 0.00 | 0.00 | 0.00 | 100 | 1008.4 |
| 20260505023544 | 94 | 132 | 3.0 | 8.0 | 0.00 | 0.00 | 0.00 | 100 | 1008.5 |
| 20260505023316 | 94 | 195 | 2.0 | 8.0 | 0.00 | 0.00 | 0.00 | 100 | 1008.4 |
| 20260505022544 | 94 | 203 | 4.0 | 8.0 | 0.00 | 0.00 | 0.00 | 100 | 1008.4 |
| 20260505022044 | 94 | 130 | 2.0 | 8.0 | 0.00 | 0.00 | 0.00 | 100 | 1008.4 |
| 20260505021542 | 94 | 146 | 0.0 | 8.0 | 0.00 | 0.00 | 0.00 | 100 | 1008.4 |
| 20260505021536 | 94 | 115 | 2.0 | 5.0 | 0.00 | 0.00 | 0.00 | 100 | 1008.4 |
| 20260505020517 | 94 | 115 | 0.0 | 6.0 | 0.00 | 0.00 | 0.00 | 100 | 1008.3 |
| 20260505015948 | 94 | 144 | 1.0 | 7.0 | 0.00 | 0.00 | 0.00 | 100 | 1008.3 |
| 20260505015447 | 94 | 156 | 0.0 | 7.0 | 0.00 | 0.00 | 0.00 | 100 | 1008.3 |
| 20260505014947 | 94 | 118 | 0.0 | 8.0 | 0.00 | 0.00 | 0.00 | 100 | 1008.2 |
| 20260505014444 | 94 | 118 | 1.0 | 8.0 | 0.00 | 0.00 | 0.00 | 100 | 1008.2 |
| 20260505013930 | 95 | 136 | 0.0 | 9.0 | 0.00 | 0.00 | 0.00 | 100 | 1008.2 |
| 20260505013429 | 95 | 180 | 1.0 | 9.0 | 0.00 | 0.00 | 0.00 | 100 | 1008.2 |
| 20260505012928 | 95 | 127 | 2.0 | 7.0 | 0.00 | 0.00 | 0.00 | 100 | 1008.2 |